Araijuku, Japan

8:18 PM JST on December 10, 2016 (GMT +0900)
Tokyo (Haneda) International

Weather History for RJTT - September, 2013

Change the Weather History Date:

Thursday, September 26, 2013

  Actual Average Record
Temperature  
Mean Temperature 70 °F -  
Max Temperature 75 °F 69 °F 86 °F (1999)
Min Temperature 66 °F 60 °F 59 °F (2010)
Cooling Degree Days 6    
Growing Degree Days 20 (Base 50)    
Moisture  
Dew Point 64 °F    
Average Humidity 76    
Maximum Humidity 94    
Minimum Humidity 53    
Precipitation  
Precipitation 0.00 in - - ()
Sea Level Pressure  
Sea Level Pressure 29.63 in    
Wind  
Wind Speed 16 mph ()    
Max Wind Speed 28 mph    
Max Gust Speed 37 mph    
Visibility 5.8 miles    
Events Rain    
Averages and records for this station are not official NWS values.
T = Trace of Precipitation, MM = Missing Value Source: Averaged Metar Reports

Daily Weather History Graph

Daily Weather History Graph

Search for Another Location

Airport or City:

Trip Planner

Search our weather history database for the weather conditions in past years. The results will help you decide how hot, cold, wet, or windy it might be!

Date:

Astronomy

Sep. 26, 2013 Rise Set
Actual Time 5:31 AM JST 5:32 PM JST
Civil Twilight 5:06 AM JST 5:57 PM JST
Nautical Twilight 4:36 AM JST 6:27 PM JST
Astronomical Twilight 4:06 AM JST 6:57 PM JST
Moon 10:07 PM JST (9/26) 11:44 AM JST (9/26)
Length of Visible Light 12h 51m
Length of Day
12h 00m
Waning Gibbous, 60% of the Moon is Illuminated
Sep 26
Waning Gibbous
Sep 27
Last Quarter
Oct 5
New
Oct 12
First Quarter
Oct 19
Full

Hourly Weather History & Observations

Time (JST) Temp. Dew Point Humidity Pressure Visibility Wind Dir Wind Speed Gust Speed Precip Events Conditions
12:00 AM 75.2 °F 71.6 °F 89% 29.56 in 6.2 mi NNE 11.5 mph - N/A   Mostly Cloudy
12:30 AM 75.2 °F 71.6 °F 89% 29.53 in 6.2 mi North 11.5 mph - N/A   Mostly Cloudy
1:00 AM 75.2 °F 71.6 °F 89% 29.53 in 6.2 mi North 13.8 mph - N/A   Mostly Cloudy
1:30 AM 73.4 °F 71.6 °F 94% 29.53 in 6.2 mi North 15.0 mph - N/A   Scattered Clouds
1:42 AM 73.4 °F 71.6 °F 94% 29.53 in 6.2 mi North 13.8 mph - N/A   Mostly Cloudy
2:00 AM 75.2 °F 71.6 °F 89% 29.53 in 6.2 mi North 10.4 mph - N/A   Mostly Cloudy
2:22 AM 73.4 °F 71.6 °F 94% 29.50 in 6.2 mi NNE 11.5 mph - N/A   Mostly Cloudy
2:30 AM 73.4 °F 71.6 °F 94% 29.50 in 6.2 mi NNE 15.0 mph - N/A   Mostly Cloudy
3:00 AM 73.4 °F 71.6 °F 94% 29.50 in 6.2 mi North 15.0 mph - N/A   Mostly Cloudy
3:10 AM 75.2 °F 71.6 °F 89% 29.53 in 6.2 mi North 16.1 mph - N/A   Mostly Cloudy
3:30 AM 75.2 °F 71.6 °F 89% 29.53 in 6.2 mi North 17.3 mph - N/A   Mostly Cloudy
4:00 AM 73.4 °F 69.8 °F 88% 29.53 in 6.2 mi North 16.1 mph - N/A   Mostly Cloudy
4:30 AM 75.2 °F 69.8 °F 83% 29.50 in 6.2 mi North 15.0 mph - N/A   Mostly Cloudy
5:00 AM 75.2 °F 69.8 °F 83% 29.50 in 6.2 mi North 13.8 mph - N/A   Mostly Cloudy
5:30 AM 73.4 °F 68.0 °F 83% 29.53 in 6.2 mi NNE 15.0 mph - N/A   Mostly Cloudy
6:00 AM 75.2 °F 69.8 °F 83% 29.53 in 6.2 mi NNE 15.0 mph - N/A   Mostly Cloudy
6:30 AM 75.2 °F 69.8 °F 83% 29.53 in 6.2 mi North 17.3 mph - N/A   Mostly Cloudy
7:00 AM 75.2 °F 68.0 °F 78% 29.53 in 6.2 mi North 17.3 mph - N/A   Mostly Cloudy
7:30 AM 75.2 °F 68.0 °F 78% 29.56 in 6.2 mi North 17.3 mph - N/A   Mostly Cloudy
8:00 AM 75.2 °F 68.0 °F 78% 29.56 in 6.2 mi North 19.6 mph - N/A   Mostly Cloudy
8:30 AM 75.2 °F 68.0 °F 78% 29.56 in 2.5 mi North 21.9 mph - N/A Rain Heavy Rain Showers
8:37 AM 71.6 °F 68.0 °F 88% 29.56 in 2.2 mi NE 24.2 mph 35.7 mph N/A Rain Heavy Rain Showers
8:41 AM 71.6 °F 66.2 °F 83% 29.59 in 1.9 mi NE 27.6 mph - N/A Rain Heavy Rain Showers
9:00 AM 69.8 °F 68.0 °F 94% 29.59 in 2.8 mi NNE 25.3 mph - N/A Rain Rain Showers
9:07 AM 69.8 °F 66.2 °F 88% 29.59 in 2.8 mi NNE 24.2 mph 36.8 mph N/A Rain Light Rain Showers
9:30 AM 69.8 °F 68.0 °F 94% 29.59 in - NNE 25.3 mph - N/A Rain Light Rain Showers
9:43 AM 69.8 °F 66.2 °F 88% 29.59 in - NNE 27.6 mph - N/A Rain Light Rain Showers
10:00 AM 69.8 °F 66.2 °F 88% 29.62 in 6.2 mi NNE 24.2 mph - N/A Rain Light Rain Showers
10:30 AM 71.6 °F 66.2 °F 83% 29.59 in 6.2 mi NNE 26.5 mph - N/A   Mostly Cloudy
11:00 AM 71.6 °F 64.4 °F 78% 29.59 in 6.2 mi NNE 21.9 mph - N/A   Mostly Cloudy
11:30 AM 71.6 °F 64.4 °F 78% 29.59 in 6.2 mi NNE 23.0 mph - N/A   Mostly Cloudy
12:00 PM 71.6 °F 64.4 °F 78% 29.59 in 6.2 mi NE 21.9 mph - N/A   Mostly Cloudy
12:30 PM 71.6 °F 64.4 °F 78% 29.59 in 6.2 mi NE 23.0 mph - N/A   Mostly Cloudy
1:00 PM 71.6 °F 64.4 °F 78% 29.62 in 6.2 mi NE 25.3 mph - N/A Rain Light Rain Showers
1:30 PM 71.6 °F 62.6 °F 73% 29.62 in 6.2 mi NE 24.2 mph - N/A   Mostly Cloudy
2:00 PM 71.6 °F 64.4 °F 78% 29.62 in 6.2 mi NE 21.9 mph - N/A   Scattered Clouds
2:30 PM 71.6 °F 62.6 °F 73% 29.62 in 6.2 mi NE 25.3 mph - N/A   Partly Cloudy
3:00 PM 71.6 °F 62.6 °F 73% 29.62 in 6.2 mi NE 20.7 mph - N/A   Mostly Cloudy
3:30 PM 71.6 °F 62.6 °F 73% 29.65 in 6.2 mi NE 20.7 mph - N/A   Mostly Cloudy
4:00 PM 71.6 °F 62.6 °F 73% 29.65 in 6.2 mi NE 18.4 mph - N/A   Mostly Cloudy
4:30 PM 71.6 °F 59.0 °F 64% 29.68 in 6.2 mi NNE 17.3 mph - N/A   Mostly Cloudy
5:00 PM 71.6 °F 59.0 °F 64% 29.68 in 6.2 mi NNE 23.0 mph - N/A   Mostly Cloudy
5:26 PM 71.6 °F 55.4 °F 57% 29.71 in 6.2 mi North 23.0 mph 34.5 mph N/A   Mostly Cloudy
5:30 PM 71.6 °F 55.4 °F 57% 29.71 in 6.2 mi North 25.3 mph - N/A   Mostly Cloudy
6:00 PM 71.6 °F 53.6 °F 53% 29.74 in 6.2 mi North 20.7 mph - N/A   Mostly Cloudy
6:30 PM 71.6 °F 55.4 °F 57% 29.74 in 6.2 mi North 20.7 mph - N/A   Mostly Cloudy
7:00 PM 69.8 °F 53.6 °F 56% 29.77 in 6.2 mi North 18.4 mph - N/A   Mostly Cloudy
7:30 PM 69.8 °F 51.8 °F 53% 29.77 in 6.2 mi NNW 20.7 mph - N/A   Mostly Cloudy
8:00 PM 69.8 °F 55.4 °F 60% 29.80 in 6.2 mi NNE 24.2 mph - N/A   Scattered Clouds
8:30 PM 68.0 °F 53.6 °F 60% 29.80 in 6.2 mi North 23.0 mph - N/A   Scattered Clouds
9:00 PM 68.0 °F 51.8 °F 56% 29.83 in 6.2 mi North 21.9 mph - N/A   Partly Cloudy
9:30 PM 66.2 °F 51.8 °F 60% 29.83 in 6.2 mi North 18.4 mph - N/A   Partly Cloudy
10:00 PM 66.2 °F 50.0 °F 56% 29.83 in - North 19.6 mph - N/A   Clear
10:30 PM 66.2 °F 50.0 °F 56% 29.86 in - North 20.7 mph - N/A   Clear
11:00 PM 66.2 °F 50.0 °F 56% 29.86 in - North 18.4 mph - N/A   Clear
11:30 PM 66.2 °F 50.0 °F 56% 29.86 in - North 19.6 mph - N/A   Clear